Reflectivity
-20 -20 -20 -20 -20 -20 -20 -20 -20 -20 -20 -20 -20 -20 -20 -20 -20 -20 -20 -0 2 16 13 22 32 35 37
-20 -20 -20 -20 -20 -20 -20 -20 -20 -20 -20 -20 -20 -20 -20 -20 -20 -20 -20 -9 -12 -3 -14 10 11 33 36
-20 -20 -20 -20 -20 -20 -20 -20 -20 -20 -20 -20 -20 -20 -20 -20 -20 -19 -14 -20 -8 2 -13 -20 -11 5 9
-20 -20 -20 -20 -20 -20 -20 -20 -20 -20 -20 -20 -20 -20 -20 -20 -20 -20 -20 -7 -18 -11 -4 -20 -20 -7 -16
-20 -20 -20 -20 -20 -20 -20 -20 -20 -20 -20 -20 -20 -20 -20 -20 -20 -20 -20 -20 -12 -17 -12 -20 -20 -20 -18
-20 -20 -9 -20 -20 -20 -20 -20 -17 -20 -20 -20 -20 -20 -20 -20 -20 -20 -20 -20 -20 -20 -20 -20 -20 -20 -20
-20 -18 -9 -16 -16 -7 -20 -20 -20 -20 -20 -20 -20 -20 -20 -20 -20 -20 -20 -20 -20 -20 -20 -20 -20 -20 -20
-20 -20 -20 -20 -20 -7 -16 -7 -20 -20 -20 -20 -20 -20 -20 -20 -20 -20 -20 -20 -20 -20 -20 -20 -20 -20 -20
-20 -20 -20 -20 -20 -20 -20 -20 -20 -20 -20 -20 -20 -20 -20 -20 -20 -20 -20 -20 -20 -20 -20 -20 -20 -20 -20
-20 -20 -20 -20 -20 -20 -20 -20 -20 -20 -20 -20 -20 -19 -20 -20 -20 -20 -20 -20 -20 -20 -20 -20 -20 -20 -20
-20 -20 -20 -20 -20 -20 -20 -20 -20 -20 -20 -20 -20 -20 2 -4 -20 -20 -20 -20 -20 -20 -20 -20 -20 -20 -14
-20 -20 -20 -20 -20 -20 -20 -20 -20 -20 -20 -20 -20 -18 -20 -20 -20 -20 -20 -20 -20 -20 -20 -20 -20 -20 -20
-20 -20 -20 -20 -20 -20 -20 -20 -20 -20 -20 -20 -20 -20 -19 -19 -19 -20 -20 -20 -20 -20 -20 -20 -20 -20 -20
-20 -20 -20 -20 -20 -20 -20 -20 -8 -20 -20 -20 -20 -20 -20 -20 -19 -20 -20 -20 -20 -20 -20 -20 -20 -20 -20
-20 -20 -20 -20 -20 -20 -20 -20 -12 -20 -20 -20 -20 -20 -20 -20 -20 -20 -20 -20 -20 -20 -20 -20 -20 -20 -20
-20 -20 -20 -20 -20 -20 -20 -20 -20 -20 -20 -20 -20 -20 -20 -20 -16 -20 -20 -20 -20 -20 -20 -20 -20 -20 -20
-20 -20 -20 -20 -19 -20 -20 -20 -20 -20 -20 -20 -20 -20 -20 -20 -20 -20 -20 -20 -20 -20 -20 -20 -20 -20 -20
Wind_Speed
2 3 4 5 5 5 5 5 5 14 13 14 15 16 15 14 14 16 16 17 15 16 15 17 19 19 21
3 2 3 3 4 4 4 4 5 12 11 12 15 17 15 12 12 14 17 16 13 14 15 16 18 19 16
3 2 3 3 4 3 3 4 5 12 9 11 15 16 14 13 11 13 15 14 11 13 14 15 15 16 17
3 3 2 4 2 2 4 2 4 6 6 11 15 14 14 12 13 13 14 13 11 9 14 16 16 16 14
3 2 2 3 3 2 3 4 5 1 3 5 4 3 4 7 8 11 13 12 11 10 14 14 16 16 17
3 4 3 3 2 2 2 3 4 2 4 8 3 4 3 3 13 11 13 11 8 10 12 15 17 15 16
3 4 3 4 3 3 3 3 4 5 4 6 2 4 5 5 12 14 12 6 8 14 15 18 16 14 16
5 5 6 5 5 5 6 4 2 3 2 4 2 3 2 5 15 7 2 3 13 15 16 16 15 18 18
12 12 12 14 13 5 3 4 8 3 2 2 3 5 3 3 3 7 11 18 18 17 13 16 18 19 9
4 5 7 8 12 4 2 2 2 3 2 3 3 3 5 2 3 6 3 11 16 14 19 19 16 4 4
4 3 4 4 4 3 2 3 3 4 4 1 1 1 3 7 3 4 6 3 3 7 13 16 16 11 6
3 4 4 3 3 3 3 4 4 6 5 4 3 4 6 8 9 4 5 5 4 3 4 9 11 14 18
4 4 3 3 3 2 3 5 6 5 5 4 4 4 5 8 9 9 11 4 7 5 3 3 6 6 8
4 3 2 2 3 1 3 4 5 6 5 7 6 6 6 8 7 10 8 6 4 6 5 6 7 7 7
3 4 3 2 3 1 3 4 6 7 8 4 5 7 7 10 9 10 10 10 8 8 6 8 7 7 8
3 2 2 2 4 4 5 5 6 7 7 6 3 4 5 8 17 12 10 10 9 8 8 9 11 7 7
3 2 2 3 7 5 5 5 7 7 8 6 3 5 8 11 6 14 10 8 7 8 8 8 10 10 8
Wind_Direction
268 291 300 318 316 328 331 327 339 354 8 10 13 15 16 25 30 20 20 10 8 20 18 13 12 18 8
275 299 285 304 298 300 326 4 336 344 3 10 14 9 8 12 30 17 22 12 14 18 8 6 10 12 4
277 273 273 297 322 322 337 330 326 337 342 7 1 359 2 9 9 15 17 10 7 18 11 11 3 355 4
290 288 277 296 311 304 325 298 320 325 349 354 346 350 354 1 0 3 360 1 356 3 4 3 0 358 354
263 253 276 305 301 283 292 308 314 3 307 337 320 313 321 342 334 342 347 346 351 356 357 359 354 351 345
234 244 243 258 259 274 303 330 328 317 344 314 306 300 294 293 322 331 342 339 352 358 350 350 346 344 340
243 237 232 236 252 275 268 248 265 310 317 294 270 295 306 314 314 318 329 14 8 350 343 342 334 331 331
245 247 242 248 244 257 264 264 288 270 260 269 283 283 281 284 316 333 343 10 344 341 335 329 331 331 324
281 290 300 306 302 303 269 294 301 276 304 259 327 307 290 318 338 10 347 335 333 328 328 330 322 319 314
275 290 308 295 302 278 219 211 237 321 235 349 326 2 325 294 297 325 309 309 313 320 320 318 316 304 282
245 268 282 280 279 278 202 159 188 242 266 316 260 281 245 296 247 271 282 289 280 291 302 311 311 307 289
248 266 264 260 268 256 257 235 228 238 263 255 249 258 272 284 287 283 289 274 257 272 291 298 299 306 302
255 254 228 230 265 269 280 275 267 259 264 242 218 249 256 273 285 291 301 302 283 279 265 258 285 288 293
225 233 240 246 270 245 300 296 286 285 247 242 234 238 263 264 269 281 282 277 279 272 271 274 275 263 260
213 225 244 281 281 269 271 275 272 284 292 271 242 243 246 257 268 266 271 272 268 272 270 275 270 260 257
226 212 218 255 276 262 249 252 270 275 274 273 265 285 271 257 236 258 262 263 269 265 256 266 280 265 250
196 206 227 253 282 272 262 265 269 270 270 265 211 243 270 273 259 237 251 251 260 264 254 247 262 269 267